Time,TemperatureF,DewpointF,PressureIn,WindDirection,WindDirectionDegrees,WindSpeedMPH,WindSpeedGustMPH,Humidity,HourlyPrecipIn,Conditions,Clouds,dailyrainin,SolarRadiationWatts/m^2,SoftwareType,DateUTC
2015-01-27 00:02:00,23.5,19.4,30.01,ESE,120,5.0,5.0,84,0.00,,,0.00,0,Wunderground v.1.15,2015-01-27 06:02:00,
2015-01-27 00:12:00,23.3,19.2,30.01,SE,136,4.0,5.0,84,0.00,,,0.00,0,Wunderground v.1.15,2015-01-27 06:12:00,
2015-01-27 00:22:00,23.2,19.1,30.01,SE,136,4.0,4.0,84,0.00,,,0.00,0,Wunderground v.1.15,2015-01-27 06:22:00,
2015-01-27 00:32:00,23.2,19.1,30.01,SE,144,3.0,3.0,84,0.00,,,0.00,0,Wunderground v.1.15,2015-01-27 06:32:00,
2015-01-27 00:42:00,23.2,18.8,30.02,SE,127,4.0,4.0,83,0.00,,,0.00,0,Wunderground v.1.15,2015-01-27 06:42:00,
2015-01-27 00:52:00,23.0,18.0,30.02,SE,134,3.0,7.0,81,0.00,,,0.00,0,Wunderground v.1.15,2015-01-27 06:52:00,
2015-01-27 01:02:00,23.2,17.7,30.02,SE,130,5.0,5.0,79,0.00,,,0.00,0,Wunderground v.1.15,2015-01-27 07:02:00,
2015-01-27 01:12:00,23.2,17.9,30.02,SSE,151,4.0,4.0,80,0.00,,,0.00,0,Wunderground v.1.15,2015-01-27 07:12:00,
2015-01-27 01:22:00,23.2,17.9,30.03,SE,145,4.0,4.0,80,0.00,,,0.00,0,Wunderground v.1.15,2015-01-27 07:22:00,
2015-01-27 01:32:00,23.0,17.7,30.03,SE,145,3.0,3.0,80,0.00,,,0.00,0,Wunderground v.1.15,2015-01-27 07:32:00,
2015-01-27 01:42:00,22.7,17.7,30.03,SE,145,2.0,2.0,81,0.00,,,0.00,0,Wunderground v.1.15,2015-01-27 07:42:00,
2015-01-27 01:52:00,22.5,17.5,30.05,SE,145,2.0,2.0,81,0.00,,,0.00,0,Wunderground v.1.15,2015-01-27 07:52:00,
2015-01-27 02:02:00,22.4,17.7,30.05,SE,145,2.0,2.0,82,0.00,,,0.00,0,Wunderground v.1.15,2015-01-27 08:02:00,
2015-01-27 02:12:00,22.4,17.7,30.05,SE,145,2.0,2.0,82,0.00,,,0.00,0,Wunderground v.1.15,2015-01-27 08:12:00,
2015-01-27 02:22:00,22.5,17.8,30.06,SE,145,2.0,2.0,82,0.00,,,0.00,0,Wunderground v.1.15,2015-01-27 08:22:00,
2015-01-27 02:32:00,22.4,17.2,30.06,SE,138,3.0,3.0,80,0.00,,,0.00,0,Wunderground v.1.15,2015-01-27 08:32:00,
2015-01-27 02:42:00,22.2,17.3,30.07,SE,138,2.0,2.0,81,0.00,,,0.00,0,Wunderground v.1.15,2015-01-27 08:42:00,
2015-01-27 02:52:00,22.2,17.3,30.07,SE,138,2.0,2.0,81,0.00,,,0.00,0,Wunderground v.1.15,2015-01-27 08:52:00,
2015-01-27 03:02:00,22.2,17.0,30.07,SE,138,2.0,2.0,80,0.00,,,0.00,0,Wunderground v.1.15,2015-01-27 09:02:00,
2015-01-27 03:12:00,21.9,16.4,30.07,SE,138,1.0,1.0,79,0.00,,,0.00,0,Wunderground v.1.15,2015-01-27 09:12:00,
2015-01-27 03:22:00,21.4,15.9,30.08,SE,138,2.0,2.0,79,0.00,,,0.00,0,Wunderground v.1.15,2015-01-27 09:22:00,
2015-01-27 03:32:00,21.1,15.6,30.08,SE,138,1.0,2.0,79,0.00,,,0.00,0,Wunderground v.1.15,2015-01-27 09:32:00,
2015-01-27 03:42:00,21.0,15.5,30.08,SE,138,1.0,1.0,79,0.00,,,0.00,0,Wunderground v.1.15,2015-01-27 09:42:00,
2015-01-27 03:52:00,20.6,15.4,30.09,SE,138,1.0,1.0,80,0.00,,,0.00,0,Wunderground v.1.15,2015-01-27 09:52:00,
2015-01-27 04:02:00,20.3,15.4,30.09,SE,138,1.0,1.0,81,0.00,,,0.00,0,Wunderground v.1.15,2015-01-27 10:02:00,
2015-01-27 04:12:00,20.2,15.6,30.09,SE,138,1.0,1.0,82,0.00,,,0.00,0,Wunderground v.1.15,2015-01-27 10:12:00,
2015-01-27 04:22:00,20.0,15.4,30.10,SE,138,1.0,1.0,82,0.00,,,0.00,0,Wunderground v.1.15,2015-01-27 10:22:00,
2015-01-27 04:32:00,20.0,15.7,30.10,SE,138,1.0,1.0,83,0.00,,,0.00,0,Wunderground v.1.15,2015-01-27 10:32:00,
2015-01-27 04:42:00,19.7,15.6,30.10,SE,138,1.0,1.0,84,0.00,,,0.00,0,Wunderground v.1.15,2015-01-27 10:42:00,
2015-01-27 04:52:00,19.4,15.4,30.11,SE,138,1.0,1.0,84,0.00,,,0.00,0,Wunderground v.1.15,2015-01-27 10:52:00,
2015-01-27 05:02:00,19.4,15.6,30.11,SE,138,2.0,2.0,85,0.00,,,0.00,0,Wunderground v.1.15,2015-01-27 11:02:00,
2015-01-27 05:12:00,19.5,15.7,30.12,SE,138,1.0,1.0,85,0.00,,,0.00,0,Wunderground v.1.15,2015-01-27 11:12:00,
2015-01-27 05:22:00,19.7,15.9,30.12,SE,138,1.0,1.0,85,0.00,,,0.00,0,Wunderground v.1.15,2015-01-27 11:22:00,
2015-01-27 05:32:00,19.9,16.1,30.12,SE,138,1.0,2.0,85,0.00,,,0.00,0,Wunderground v.1.15,2015-01-27 11:32:00,
2015-01-27 05:42:00,20.2,16.1,30.13,SE,138,1.0,1.0,84,0.00,,,0.00,0,Wunderground v.1.15,2015-01-27 11:42:00,
2015-01-27 05:52:00,20.2,16.1,30.13,SE,138,2.0,2.0,84,0.00,,,0.00,0,Wunderground v.1.15,2015-01-27 11:52:00,
2015-01-27 06:02:00,20.3,16.2,30.13,SE,138,2.0,2.0,84,0.00,,,0.00,0,Wunderground v.1.15,2015-01-27 12:02:00,
2015-01-27 06:12:00,20.5,16.4,30.14,SE,138,2.0,2.0,84,0.00,,,0.00,0,Wunderground v.1.15,2015-01-27 12:12:00,
2015-01-27 06:22:00,20.5,16.4,30.14,SE,138,2.0,2.0,84,0.00,,,0.00,0,Wunderground v.1.15,2015-01-27 12:22:00,
2015-01-27 06:32:00,20.6,16.5,30.14,SE,138,2.0,2.0,84,0.00,,,0.00,0,Wunderground v.1.15,2015-01-27 12:32:00,
2015-01-27 06:42:00,20.8,16.5,30.15,SE,138,2.0,2.0,83,0.00,,,0.00,0,Wunderground v.1.15,2015-01-27 12:42:00,
2015-01-27 06:52:00,21.0,16.6,30.16,SE,138,2.0,2.0,83,0.00,,,0.00,0,Wunderground v.1.15,2015-01-27 12:52:00,
2015-01-27 07:02:00,21.1,16.7,30.16,SE,138,1.0,2.0,83,0.00,,,0.00,0,Wunderground v.1.15,2015-01-27 13:02:00,
2015-01-27 07:12:00,21.4,16.8,30.17,SE,138,2.0,2.0,82,0.00,,,0.00,0,Wunderground v.1.15,2015-01-27 13:12:00,
2015-01-27 07:22:00,21.6,17.0,30.17,SE,138,1.0,2.0,82,0.00,,,0.00,0,Wunderground v.1.15,2015-01-27 13:22:00,
2015-01-27 07:32:00,21.8,17.2,30.17,SE,138,2.0,2.0,82,0.00,,,0.00,0,Wunderground v.1.15,2015-01-27 13:32:00,
2015-01-27 07:42:00,21.9,17.0,30.17,SE,138,2.0,3.0,81,0.00,,,0.00,9,Wunderground v.1.15,2015-01-27 13:42:00,
2015-01-27 07:52:00,22.1,16.9,30.18,SE,138,2.0,2.0,80,0.00,,,0.00,12,Wunderground v.1.15,2015-01-27 13:52:00,
2015-01-27 08:02:00,22.2,17.0,30.18,SE,138,1.0,1.0,80,0.00,,,0.00,16,Wunderground v.1.15,2015-01-27 14:02:00,
2015-01-27 08:12:00,22.4,17.2,30.18,SE,138,1.0,2.0,80,0.00,,,0.00,23,Wunderground v.1.15,2015-01-27 14:12:00,
2015-01-27 08:22:00,22.5,17.3,30.18,SE,138,2.0,2.0,80,0.00,,,0.00,33,Wunderground v.1.15,2015-01-27 14:22:00,
2015-01-27 08:32:00,22.7,17.5,30.18,SE,138,2.0,2.0,80,0.00,,,0.00,44,Wunderground v.1.15,2015-01-27 14:32:00,
2015-01-27 08:42:00,23.0,17.7,30.19,SE,138,2.0,2.0,80,0.00,,,0.00,62,Wunderground v.1.15,2015-01-27 14:42:00,
2015-01-27 08:52:00,23.3,17.7,30.19,SE,137,3.0,3.0,79,0.00,,,0.00,67,Wunderground v.1.15,2015-01-27 14:52:00,
2015-01-27 09:02:00,23.6,17.7,30.19,SE,137,3.0,3.0,78,0.00,,,0.00,77,Wunderground v.1.15,2015-01-27 15:02:00,
2015-01-27 09:12:00,23.9,18.0,30.20,SE,137,2.0,3.0,78,0.00,,,0.00,90,Wunderground v.1.15,2015-01-27 15:12:00,
2015-01-27 09:22:00,24.2,18.0,30.20,SE,137,3.0,3.0,77,0.00,,,0.00,116,Wunderground v.1.15,2015-01-27 15:22:00,
2015-01-27 09:32:00,24.5,18.6,30.20,ESE,121,3.0,3.0,78,0.00,,,0.00,128,Wunderground v.1.15,2015-01-27 15:32:00,
2015-01-27 09:42:00,24.7,18.8,30.20,ESE,113,3.0,4.0,78,0.00,,,0.00,146,Wunderground v.1.15,2015-01-27 15:42:00,
2015-01-27 09:52:00,24.4,19.1,30.21,East,82,5.0,5.0,80,0.00,,,0.00,128,Wunderground v.1.15,2015-01-27 15:52:00,
2015-01-27 10:02:00,24.4,19.7,30.21,East,82,4.0,4.0,82,0.00,,,0.00,125,Wunderground v.1.15,2015-01-27 16:02:00,
2015-01-27 10:12:00,24.4,20.3,30.22,East,82,3.0,3.0,84,0.00,,,0.00,146,Wunderground v.1.15,2015-01-27 16:12:00,
2015-01-27 10:22:00,24.4,20.3,30.23,East,82,3.0,3.0,84,0.00,,,0.00,139,Wunderground v.1.15,2015-01-27 16:22:00,
2015-01-27 10:32:00,24.4,20.5,30.23,East,82,3.0,5.0,85,0.00,,,0.00,135,Wunderground v.1.15,2015-01-27 16:32:00,
2015-01-27 10:42:00,24.4,20.8,30.23,East,82,3.0,3.0,86,0.00,,,0.00,160,Wunderground v.1.15,2015-01-27 16:42:00,
2015-01-27 10:52:00,24.7,21.1,30.23,East,82,3.0,3.0,86,0.00,,,0.00,192,Wunderground v.1.15,2015-01-27 16:52:00,